COSMOS 2251 DEB

Satellite information

Favourite Embed

Satellite Type and Status

DEBRISIN ORBIT

Key statistics

Satellite COSMOS 2251 DEB at a glance.

Uptime

11769

Days in orbit

Revolutions

≈ 13.6

Per day

Orbit

LEO

Low Earth Orbit

Inclination

74.1

Latest

Satellite identification and parameters

Extended collection of information and parameters for COSMOS 2251 DEB.

Object identification

Identified? True

Debris? True

Object name: COSMOS 2251 DEB

International designator: 1993-036BXH

Object number (NORAD): 47053

Object ID (CCSDS): 47053

Country: COMMONWEALTH OF INDEPENDENT STATES (CIS)

Current information (Y/N): Y

RCS size: SMALL

Orbital parameters

Period: 105.94 minutes

Inclination: 74.0599 deg

SMA: 7416.509 km

Apoapsis: 1318.724 km

Periapsis: 758.024 km

RAAN: 55.0205 deg

Eccentricy: 0.03780082

Argument of periapsis: 250.4378 deg

Mean anomaly: 291.75 deg

Mean motion: 13.59262994 rev/day

Mean motion (dot): 0.00001803 rev/day2

B* drag term: 0.0015483315 1/REarth

Two-line elements (TLE)

Creation date: Sept. 4, 2025, 10:13 a.m.

Reference frame: TEME

Reference center: EARTH

Epoch: Sept. 4, 2025, 5:59 a.m. UTC

TLE line 0: 0 COSMOS 2251 DEB

TLE line 1: 1 47053U 93036BXH 25247.24975122 .00001803 00000-0 15483-2 0 9997

TLE line 2: 2 47053 74.0599 55.0205 0378008 250.4378 291.7500 13.59262994275364

Live tracking on map

Real-time ground track for satellite COSMOS 2251 DEB.

In-orbit conjunctions

A list of the most updated potential collisions computed for object COSMOS 2251 DEB.

Target Orbit TCA Probability of collision Miss distance Type
FENGYUN 1C DEB SSO 2025-03-18 01:33:42 0.0003976545 199.0 (m) DEBRIS
COSMOS 2251 DEB LEO 2024-11-15 15:40:22 0.0004423194 233.0 (m) DEBRIS
COSMOS 411 LEO 2024-07-04 04:46:35 0.000523368 195.0 (m) PAYLOAD

Associated space launch

Military communications satellite. Destroyed in a collision with Iridium 33.

COSMOS 2251 DEB was lifted into orbit during the mission ‘Kosmos-3M | Strela-2M 51’, on board a Kosmos-3M space rocket.

The launch took place on June 16, 1993, 4:17 a.m. from 132/1 (132L).

For more information about the launch, click the button.

Launch to space Kosmos-3M | Strela-2M 51
Kosmos-3M | Strela-2M 51

Agency: N/A

Status: Launch Successful

Launch date: June 16, 1993, 4:17 a.m. UTC

Rocket: Kosmos-3M

Launch pad: 132/1 (132L)

Location: Plesetsk Cosmodrome, Russian Federation

...

Latest news about this satellite

There are no fresh news available about this satellite. Check back as we update our databases every day.


Newsletter sign-up

Weekly statistics, charts and insights to help you stay on top of the space industry.